• In Deutschland
  • Länderverzeichnis
  • Für 7 Tage
  • Wassertemperatur
  • Satellitenkarten
  • Wetterkarte
  • Widgets
  • user-avatar
    Anmelden

    Stündliche Wetter Paralia

    Heute, 18 Februar, Sonntag

    Zeit Temperatur Niederschläge Wind Luftdruck Luftfeuchtigkeit
    00:00 +10°C° 0 mm 1 m/S 753 mmHg 89%
    01:00 +10°C° 0 mm 1 m/S 752 mmHg 89%
    02:00 +9°C° 0 mm 1 m/S 752 mmHg 90%
    03:00 +9°C° 0 mm 1 m/S 752 mmHg 90%
    04:00 +9°C° 0 mm 1 m/S 752 mmHg 90%
    05:00 +9°C° 0 mm 1 m/S 752 mmHg 90%
    06:00 +9°C° 0 mm 1 m/S 752 mmHg 89%
    07:00 +10°C° 0 mm 1 m/S 752 mmHg 87%
    08:00 +11°C° 0 mm 1 m/S 751 mmHg 81%
    09:00 +13°C° 0 mm 1 m/S 751 mmHg 75%
    10:00 +15°C° 0 mm 1 m/S 751 mmHg 69%
    11:00 +15°C° 0 mm 1 m/S 751 mmHg 67%
    12:00 +16°C° 0 mm 1 m/S 750 mmHg 65%
    13:00 +16°C° 0 mm 1 m/S 750 mmHg 65%
    14:00 +15°C° 0 mm 1 m/S 750 mmHg 68%
    15:00 +15°C° 0 mm 1 m/S 750 mmHg 71%
    16:00 +14°C° 0 mm 1 m/S 749 mmHg 74%
    17:00 +13°C° 0 mm 1 m/S 749 mmHg 79%
    18:00 +12°C° 0 mm 1 m/S 749 mmHg 84%
    19:00 +10°C° 0 mm 0 m/S 749 mmHg 89%
    20:00 +10°C° 0 mm 0 m/S 749 mmHg 89%
    21:00 +10°C° 0 mm 0 m/S 749 mmHg 89%
    22:00 +10°C° 0 mm 0 m/S 749 mmHg 90%
    23:00 +10°C° 0 mm 0 m/S 749 mmHg 90%

    Morgen, 19 Februar, Montag

    Zeit Temperatur Niederschläge Wind Luftdruck Luftfeuchtigkeit
    00:00 +10°C° 0 mm 0 m/S 749 mmHg 91%
    01:00 +10°C° 0 mm 0 m/S 748 mmHg 91%
    02:00 +10°C° 0,1 mm 0 m/S 748 mmHg 92%
    03:00 +10°C° 0,1 mm 1 m/S 748 mmHg 92%
    04:00 +10°C° 0,1 mm 1 m/S 748 mmHg 93%
    05:00 +10°C° 0 mm 1 m/S 748 mmHg 92%
    06:00 +10°C° 0 mm 1 m/S 748 mmHg 92%
    07:00 +10°C° 0 mm 1 m/S 748 mmHg 91%
    08:00 +11°C° 0 mm 1 m/S 748 mmHg 84%
    09:00 +13°C° 0 mm 1 m/S 748 mmHg 77%
    10:00 +14°C° 0 mm 1 m/S 748 mmHg 69%
    11:00 +15°C° 0 mm 1 m/S 748 mmHg 66%
    12:00 +15°C° 0 mm 1 m/S 747 mmHg 63%
    13:00 +16°C° 0 mm 2 m/S 747 mmHg 60%
    14:00 +15°C° 0,2 mm 2 m/S 747 mmHg 65%
    15:00 +14°C° 0,2 mm 2 m/S 747 mmHg 70%
    16:00 +14°C° 0,2 mm 2 m/S 746 mmHg 76%
    17:00 +13°C° 0,9 mm 2 m/S 746 mmHg 80%
    18:00 +12°C° 0,9 mm 2 m/S 746 mmHg 85%
    19:00 +10°C° 0,9 mm 2 m/S 746 mmHg 90%
    20:00 +10°C° 1 mm 2 m/S 746 mmHg 90%
    21:00 +10°C° 1 mm 2 m/S 746 mmHg 90%
    22:00 +10°C° 1 mm 2 m/S 746 mmHg 91%
    23:00 +10°C° 1 mm 2 m/S 746 mmHg 91%

    übermorgen, 20 Februar, Dienstag

    Zeit Temperatur Niederschläge Wind Luftdruck Luftfeuchtigkeit
    00:00 +10°C° 1 mm 2 m/S 746 mmHg 91%
    01:00 +10°C° 1 mm 2 m/S 746 mmHg 91%
    02:00 +10°C° 0,5 mm 2 m/S 746 mmHg 91%
    03:00 +10°C° 0,5 mm 2 m/S 746 mmHg 91%
    04:00 +10°C° 0,5 mm 2 m/S 745 mmHg 91%
    05:00 +10°C° 0,4 mm 2 m/S 745 mmHg 91%
    06:00 +9°C° 0,4 mm 2 m/S 745 mmHg 91%
    07:00 +9°C° 0,4 mm 2 m/S 745 mmHg 91%
    08:00 +10°C° 0,5 mm 2 m/S 746 mmHg 89%
    09:00 +12°C° 0,5 mm 2 m/S 746 mmHg 86%
    10:00 +12°C° 0,5 mm 2 m/S 746 mmHg 84%
    11:00 +13°C° 0,4 mm 2 m/S 745 mmHg 82%
    12:00 +13°C° 0,4 mm 2 m/S 745 mmHg 81%
    13:00 +14°C° 0,4 mm 2 m/S 744 mmHg 79%
    14:00 +13°C° 0,4 mm 2 m/S 744 mmHg 80%
    15:00 +13°C° 0,4 mm 2 m/S 744 mmHg 81%
    16:00 +13°C° 0,4 mm 2 m/S 744 mmHg 82%
    17:00 +13°C° 0,2 mm 2 m/S 744 mmHg 85%
    18:00 +12°C° 0,2 mm 2 m/S 744 mmHg 88%
    19:00 +10°C° 0,2 mm 2 m/S 744 mmHg 91%
    20:00 +10°C° 0,1 mm 2 m/S 744 mmHg 92%
    21:00 +10°C° 0,1 mm 2 m/S 744 mmHg 92%
    22:00 +10°C° 0,1 mm 2 m/S 744 mmHg 92%
    23:00 +9°C° 0 mm 2 m/S 744 mmHg 93%

    21 Februar, Mittwoch

    Zeit Temperatur Niederschläge Wind Luftdruck Luftfeuchtigkeit
    00:00 +9°C° 0 mm 2 m/S 744 mmHg 93%
    01:00 +9°C° 0 mm 2 m/S 743 mmHg 93%
    02:00 +9°C° 0 mm 2 m/S 743 mmHg 92%
    03:00 +8°C° 0 mm 2 m/S 743 mmHg 92%
    04:00 +8°C° 0 mm 2 m/S 742 mmHg 92%
    05:00 +8°C° 0 mm 2 m/S 742 mmHg 91%
    06:00 +9°C° 0 mm 2 m/S 742 mmHg 91%
    07:00 +9°C° 0 mm 2 m/S 742 mmHg 90%
    08:00 +10°C° 0 mm 2 m/S 742 mmHg 83%
    09:00 +13°C° 0 mm 2 m/S 742 mmHg 77%
    10:00 +15°C° 0 mm 2 m/S 742 mmHg 70%
    11:00 +15°C° 0 mm 2 m/S 742 mmHg 68%
    12:00 +16°C° 0 mm 2 m/S 742 mmHg 65%
    13:00 +17°C° 0 mm 3 m/S 742 mmHg 63%
    14:00 +16°C° 0,5 mm 3 m/S 742 mmHg 67%
    15:00 +14°C° 0,5 mm 3 m/S 741 mmHg 71%
    16:00 +14°C° 0,5 mm 3 m/S 741 mmHg 75%
    17:00 +13°C° 0,6 mm 3 m/S 741 mmHg 79%
    18:00 +13°C° 0,6 mm 2 m/S 742 mmHg 83%
    19:00 +12°C° 0,6 mm 2 m/S 742 mmHg 88%
    20:00 +12°C° 0,2 mm 2 m/S 742 mmHg 88%
    21:00 +12°C° 0,2 mm 2 m/S 742 mmHg 89%
    22:00 +10°C° 0,2 mm 2 m/S 742 mmHg 90%
    23:00 +10°C° 0,3 mm 2 m/S 742 mmHg 90%

    22 Februar, Donnerstag

    Zeit Temperatur Niederschläge Wind Luftdruck Luftfeuchtigkeit
    00:00 +10°C° 0,3 mm 2 m/S 742 mmHg 90%
    01:00 +10°C° 0,3 mm 2 m/S 742 mmHg 91%
    02:00 +10°C° 0,2 mm 2 m/S 742 mmHg 91%
    03:00 +10°C° 0,2 mm 2 m/S 742 mmHg 91%
    04:00 +10°C° 0,2 mm 2 m/S 742 mmHg 91%
    05:00 +10°C° 0,1 mm 2 m/S 742 mmHg 90%
    06:00 +10°C° 0,1 mm 2 m/S 742 mmHg 90%
    07:00 +10°C° 0,1 mm 2 m/S 742 mmHg 89%
    08:00 +13°C° 0 mm 2 m/S 742 mmHg 81%
    09:00 +14°C° 0 mm 2 m/S 743 mmHg 74%
    10:00 +16°C° 0 mm 2 m/S 743 mmHg 66%
    11:00 +16°C° 0,2 mm 2 m/S 742 mmHg 65%
    12:00 +17°C° 0,2 mm 2 m/S 742 mmHg 64%
    13:00 +17°C° 0,2 mm 2 m/S 742 mmHg 63%
    14:00 +17°C° 0,4 mm 2 m/S 742 mmHg 66%
    15:00 +16°C° 0,4 mm 1 m/S 742 mmHg 69%
    16:00 +16°C° 0,4 mm 1 m/S 742 mmHg 72%
    17:00 +14°C° 0,2 mm 1 m/S 742 mmHg 77%
    18:00 +13°C° 0,2 mm 1 m/S 743 mmHg 82%
    19:00 +12°C° 0,2 mm 1 m/S 743 mmHg 87%
    20:00 +12°C° 0,1 mm 1 m/S 743 mmHg 87%
    21:00 +12°C° 0,1 mm 1 m/S 743 mmHg 87%
    22:00 +11°C° 0,1 mm 1 m/S 744 mmHg 88%
    23:00 +11°C° 0 mm 1 m/S 743 mmHg 88%

    23 Februar, Freitag

    Zeit Temperatur Niederschläge Wind Luftdruck Luftfeuchtigkeit
    00:00 +11°C° 0 mm 1 m/S 743 mmHg 88%
    01:00 +11°C° 0 mm 1 m/S 743 mmHg 88%
    02:00 +10°C° 0 mm 1 m/S 743 mmHg 88%
    03:00 +10°C° 0 mm 1 m/S 743 mmHg 88%
    04:00 +9°C° 0 mm 2 m/S 742 mmHg 88%
    05:00 +9°C° 0 mm 2 m/S 742 mmHg 88%
    06:00 +9°C° 0 mm 2 m/S 742 mmHg 88%
    07:00 +9°C° 0 mm 2 m/S 743 mmHg 87%
    08:00 +12°C° 0 mm 2 m/S 743 mmHg 78%
    09:00 +14°C° 0 mm 2 m/S 743 mmHg 69%
    10:00 +16°C° 0 mm 3 m/S 743 mmHg 60%
    11:00 +17°C° 0 mm 3 m/S 743 mmHg 57%
    12:00 +18°C° 0 mm 3 m/S 742 mmHg 55%
    13:00 +18°C° 0 mm 4 m/S 742 mmHg 52%
    14:00 +18°C° 0 mm 4 m/S 742 mmHg 55%
    15:00 +18°C° 0 mm 4 m/S 742 mmHg 57%
    16:00 +17°C° 0 mm 3 m/S 742 mmHg 60%
    17:00 +16°C° 0 mm 3 m/S 742 mmHg 64%
    18:00 +14°C° 0 mm 3 m/S 742 mmHg 69%
    19:00 +12°C° 0 mm 3 m/S 742 mmHg 73%
    20:00 +12°C° 0 mm 3 m/S 742 mmHg 72%
    21:00 +12°C° 0 mm 3 m/S 742 mmHg 72%
    22:00 +11°C° 0 mm 3 m/S 742 mmHg 71%
    23:00 +11°C° 0,2 mm 3 m/S 742 mmHg 74%
    Mehr zeigen